Weather History for Saint Simons Island, GA

Change the Weather History Date:

Monday, March 3, 2014

  Actual Average Record
Temperature  
Mean Temperature 68 °F 58 °F  
Max Temperature 81 °F 66 °F 84 °F (1997)
Min Temperature 55 °F 49 °F 22 °F (1980)
Degree Days  
Heating Degree Days 0 8  
Month to date heating degree days 19 24  
Since 1 July heating degree days 1247 1275  
Cooling Degree Days 3 1  
Month to date cooling degree days 3 2  
Year to date cooling degree days 11 11  
Growing Degree Days 18 (Base 50)    
Moisture  
Dew Point 58 °F    
Average Humidity 69    
Maximum Humidity 93    
Minimum Humidity 45    
Precipitation  
Precipitation 0.01 in 0.14 in 3.74 in (2002)
Month to date precipitation 0.01 0.42  
Year to date precipitation 6.49 7.11  
Snow  
Snow 0.00 in - 0.00 in ()
Month to date snowfall 0.0  
Since 1 July snowfall T  
Snow Depth 0.00 in    
Sea Level Pressure  
Sea Level Pressure 29.97 in    
Wind  
Wind Speed 11 mph (WSW)    
Max Wind Speed 22 mph    
Max Gust Speed 28 mph    
Visibility 10 miles    
Events Rain    
T = Trace of Precipitation, MM = Missing Value Source: NWS Daily Summary

Daily Weather History Graph

Daily Weather History Graph

Search for Another Location

Airport:

Trip Planner

Search our weather history database for the weather conditions in past years. The results will help you decide how hot, cold, wet, or windy it might be!

Date:

Astronomy

Mar. 03, 2014 Rise Set
Actual Time 6:49 AM EST 6:25 PM EST
Civil Twilight 6:25 AM EST 6:49 PM EST
Nautical Twilight 5:57 AM EST 7:17 PM EST
Astronomical Twilight 5:29 AM EST 7:45 PM EST
Moon 8:09 AM EST (3/3) 9:12 PM EST (3/3)
Length of Visible Light 12h 23m
Length of Day
11h 35m
Waxing Crescent, 8% of the Moon is Illuminated
Mar 3
Waxing Crescent
Mar 8
First Quarter
Mar 16
Full
Mar 23
Last Quarter
Mar 30
New

Hourly Weather History & Observations

Time (EST) Temp. Heat Index Dew Point Humidity Pressure Visibility Wind Dir Wind Speed Gust Speed Precip Events Conditions
12:53 AM 57.0 °F - 55.9 °F 96% 30.05 in 10.0 mi SSW 4.6 mph - N/A   Clear
1:53 AM 57.9 °F - 55.9 °F 93% 30.02 in 10.0 mi SSW 4.6 mph - N/A   Clear
2:53 AM 59.0 °F - 55.9 °F 90% 29.99 in 10.0 mi SW 8.1 mph - N/A   Clear
3:53 AM 57.0 °F - 55.0 °F 93% 29.99 in 10.0 mi SW 8.1 mph - N/A   Clear
4:53 AM 57.0 °F - 55.0 °F 93% 29.98 in 10.0 mi SW 8.1 mph - N/A   Clear
5:53 AM 55.9 °F - 53.1 °F 90% 29.98 in 10.0 mi WSW 8.1 mph - N/A   Clear
6:53 AM 55.9 °F - 53.1 °F 90% 30.00 in 10.0 mi SW 6.9 mph - N/A   Clear
7:53 AM 57.9 °F - 54.0 °F 87% 29.99 in 10.0 mi SSW 10.4 mph - N/A   Clear
8:53 AM 63.0 °F - 59.0 °F 87% 30.01 in 10.0 mi North - - N/A   Partly Cloudy
9:06 AM 62.1 °F - 57.9 °F 86% 30.01 in 10.0 mi WSW 10.4 mph - N/A   Mostly Cloudy
9:51 AM 66.2 °F - 60.8 °F 83% 30.00 in 10.0 mi WSW 11.5 mph - N/A   Scattered Clouds
9:53 AM 66.0 °F - 60.1 °F 81% 30.00 in 10.0 mi WSW 9.2 mph - N/A   Partly Cloudy
10:53 AM 70.0 °F - 59.0 °F 68% 29.98 in 10.0 mi SW 15.0 mph - N/A   Clear
11:53 AM 75.0 °F - 59.0 °F 57% 29.96 in 10.0 mi WSW 16.1 mph - N/A   Clear
12:53 PM 78.1 °F - 57.9 °F 50% 29.93 in 10.0 mi SW 15.0 mph - N/A   Clear
1:53 PM 80.1 °F 80.4 °F 57.0 °F 45% 29.91 in 10.0 mi WSW 10.4 mph 20.7 mph N/A   Clear
2:53 PM 81.0 °F 81.1 °F 57.9 °F 45% 29.88 in 10.0 mi SW 17.3 mph 25.3 mph N/A   Clear
3:53 PM 80.1 °F 80.7 °F 59.0 °F 48% 29.88 in 10.0 mi WSW 16.1 mph 23.0 mph 0.00 in   Mostly Cloudy
4:53 PM 79.0 °F - 59.0 °F 50% 29.87 in 10.0 mi SW 18.4 mph 24.2 mph 0.00 in   Clear
5:53 PM 75.0 °F - 59.0 °F 57% 29.89 in 10.0 mi WSW 13.8 mph - 0.00 in   Scattered Clouds
6:53 PM 72.0 °F - 60.1 °F 66% 29.91 in 10.0 mi WSW 12.7 mph - N/A   Clear
7:53 PM 71.1 °F - 61.0 °F 70% 29.93 in 10.0 mi SW 15.0 mph - N/A   Scattered Clouds
8:22 PM 71.1 °F - 62.1 °F 73% 29.95 in 7.0 mi West 10.4 mph - 0.01 in Rain Light Rain
8:53 PM 68.0 °F - 64.0 °F 87% 29.96 in 10.0 mi West 6.9 mph - 0.01 in   Overcast
9:53 PM 69.1 °F - 63.0 °F 81% 29.99 in 10.0 mi WNW 8.1 mph - N/A   Overcast
10:20 PM 66.9 °F - 59.0 °F 76% 30.00 in 10.0 mi WNW 5.8 mph 17.3 mph N/A   Overcast
10:53 PM 64.9 °F - 57.9 °F 78% 30.01 in 10.0 mi WNW 6.9 mph - N/A   Mostly Cloudy
11:14 PM 64.9 °F - 57.0 °F 75% 30.02 in 10.0 mi NW 10.4 mph - N/A   Mostly Cloudy
11:44 PM 64.0 °F - 55.9 °F 75% 30.03 in 10.0 mi NNW 5.8 mph - N/A   Overcast
11:53 PM 64.0 °F - 55.9 °F 75% 30.03 in 10.0 mi NNW 8.1 mph - N/A   Overcast